STARLINK-1572, 46060

Orbit data source: Space-Track

STARLINK-1572, 46060 is a payload satellite owned by SpaceX/Seattle (US) in LEO that was launched on Fri, 07 Aug 2020 UTC via an FALCON 9 launch vehicle from the Air Force Eastern Test Range (AFETR). Payload-class satellites include a variety of spacecraft equipped with specific instruments for various scientific and technological missions. These include communications satellites like Starlink; space stations such as the ISS; scientific satellites like the Hubble; Earth observation satellites from companies like Planet Labs, Umbra, and HawkEye 360; GPS; miniature CubeSats for education and research; and military/defense satellites.

Loading next visibility...
Identifier
46060, 2020-055AK
Orbit
LEO
Country
Flag of USUS
Related business
Manufacturer
SpaceX/Seattle
Mission
Operational Commercial Communications
Bus & Motor
STARLINK, Unknown motor
Mass
260 kg wet, ~248 kg dry
Launch date (UTC)
2020-08-07 (5 years ago)
Launch vehicle
FALCON 9
Launch site
Air Force Eastern Test Range (AFETR)
Object type
Payload
Rocket body
Debris
Shape & HBR
Box + 1 Pan, 10.1 m
Radar Cross Section
13.562 m², Large (>1 m²)

Expand to show TLE details & history
Last TLE update: 13 hours ago

TLE from 13 hours ago
0 STARLINK-1572
1 46060U 20055AK  25340.83309478 -.00001785  00000-0 -10099-3 0  9999
2 46060  53.0536 173.4663 0001394  97.3411 262.7737 15.06393433295009
Epoch: 2025-12-06T19:59Z
TLE epoch observation values (Epoch: 2025-12-06T19:59:39.388Z)
Latitude
-0°
Longitude
157.69702°
Altitude
548.232 km
Speed
7.589 km/s
True Right ascension
11h 33m 51s
True Declination
0° 00' 00"
Sunlit
Object was in daylight at epoch
Visualization orbit readout
Latitude
Unknown
Longitude
Unknown
Altitude
Unknown
Speed
Unknown
Apparent Right ascension
Unknown
Apparent Declination
Unknown
Sunlit
N/A
Visualization observer readout
Local Sidereal Time
06:42:05
Azimuth
Unknown
Elevation
Unknown
Doppler factor
Unknown
Orbital elements
Apogee altitude
548.468 km
Perigee altitude
546.537 km
Semi-major axis
6,925.64 km
Eccentricity
0.00014
Inclination
53.0536°
RAAN
173.4663°
Arg. of periapsis
97.3411°
True anomaly
262.75785°
Mean anomaly
262.7737°
Eccentric anomaly
262.76578°
Mean motion
3.76577 °/min
Orbital period
95.6 mins
BSTAR
-0.00010099
Loading maneuver chart data...
Computing Atmospheric mass density...

Documentation

Showing up to 5 results
|